Terminal Aerodrome Forecast
Issued by NWS

Home | Current Version | Previous Version | Graphics & Text | Print | Product List | Glossary Off
Versions: 1 2 3 4 5 6 7 8 9 10 11 12 13 14 15 16 17 18 19 20 21 22 23 24 25 26 27 28 29 30 31

000
FTUS43 KDDC 251144 RRA
TAFGCK
TAF
KGCK 251144Z 2512/2612 15010KT P6SM OVC250
     FM251300 16012G18KT P6SM BKN100
     FM260000 12014KT P6SM OVC100
      TEMPO 2601/2604 P6SM TSRA BKN050CB=

USA.gov is the U.S. government's official web portal to all federal, state and local government web resources and services.